Location: Tel Aviv
(32.0670°N, 34.7670°E)
Time: 10:52:20
(UTC+02:00)

SR - All Passes

Search period start: 28 January 2022 00:00
Search period end: 07 February 2022 00:00
Orbit: 582 x 872 km, 66.7° (Epoch: 27 January)

Date Brightness Start Highest point End Pass type
(mag) Time Alt. Az. Time Alt. Az. Time Alt. Az.
28 Jan - 08:00:05 10° SSE 08:02:56 17° ESE 08:05:45 10° ENE daylight
28 Jan - 09:40:52 10° WSW 09:44:39 30° WNW 09:48:24 10° N daylight
28 Jan - 18:24:24 10° NNW 18:29:10 53° ENE 18:34:21 10° SE visible
28 Jan - 20:08:05 10° WNW 20:10:50 15° WSW 20:13:42 10° SW visible
29 Jan - 08:50:24 10° SSW 08:54:42 77° WNW 08:58:57 10° NNE daylight
29 Jan - 17:35:10 10° N 17:39:09 25° ENE 17:43:23 10° ESE visible
29 Jan - 19:16:42 10° NW 19:21:09 33° WSW 19:25:55 10° S visible
30 Jan - 08:00:53 10° S 08:04:54 39° ESE 08:08:52 10° NE daylight
30 Jan - 09:44:39 10° W 09:47:01 14° NW 09:49:23 10° NNW daylight
30 Jan - 16:47:11 10° NNE 16:48:57 12° NE 16:50:46 10° ENE daylight
30 Jan - 18:26:25 10° NNW 18:31:21 76° WSW 18:36:42 10° SSE visible
31 Jan - 07:12:40 10° SE 07:15:14 16° ESE 07:17:47 10° ENE daylight
31 Jan - 08:53:02 10° SW 08:56:54 33° WNW 09:00:45 10° N daylight
31 Jan - 17:36:41 10° NNW 17:41:26 48° ENE 17:46:36 10° SE visible
31 Jan - 19:20:03 10° WNW 19:23:09 16° WSW 19:26:24 10° SW visible
01 Feb - 08:02:40 10° SSW 08:06:58 85° WNW 08:11:13 10° NNE daylight
01 Feb - 16:47:32 10° N 16:51:25 23° ENE 16:55:32 10° ESE daylight
01 Feb - 18:28:53 10° NW 18:33:27 36° WSW 18:38:21 10° S visible
02 Feb - 07:13:15 10° S 07:17:11 35° ESE 07:21:04 10° NE daylight
02 Feb - 08:56:38 10° W 08:59:15 16° NW 09:01:53 10° NNW daylight
02 Feb - 15:59:56 10° NE 16:01:11 11° NE 16:02:29 10° ENE daylight
02 Feb - 17:38:40 10° NNW 17:43:38 83° WSW 17:49:02 10° SSE visible
03 Feb - 06:25:18 10° SE 06:27:32 14° ESE 06:29:45 10° ENE daylight
03 Feb - 08:05:12 10° SW 08:09:08 36° WNW 08:13:05 10° N daylight
03 Feb - 16:49:00 10° N 16:53:43 44° ENE 16:58:50 10° SE daylight
03 Feb - 18:32:04 10° WNW 18:35:29 18° WSW 18:39:02 10° SSW visible
04 Feb - 07:14:57 10° SSW 07:19:14 86° ESE 07:23:29 10° NNE daylight
04 Feb - 15:59:54 10° N 16:03:41 21° ENE 16:07:39 10° ESE daylight
04 Feb - 17:41:04 10° NW 17:45:45 40° WSW 17:50:47 10° S visible
05 Feb - 06:25:39 10° S 06:29:28 32° ESE 06:33:14 10° NE daylight
05 Feb - 08:08:38 10° W 08:11:29 17° NW 08:14:20 10° NNW daylight
05 Feb - 16:50:55 10° NNW 16:55:55 90° WSW 17:01:22 10° SSE daylight
06 Feb - 05:38:01 10° SE 05:39:49 12° ESE 05:41:38 10° E visible
06 Feb - 07:17:22 10° SW 07:21:23 40° WNW 07:25:24 10° N daylight
06 Feb - 16:01:18 10° N 16:05:59 41° ENE 16:11:03 10° SE daylight
06 Feb - 17:44:07 10° WNW 17:47:47 20° WSW 17:51:38 10° SSW visible
